Showing default

CARTOSAT 2E, 42767

Orbit data source: Space-Track

CARTOSAT 2E, 42767 is a payload satellite owned by ISRO (IN) in SSO that was launched on Fri, 23 Jun 2017 UTC via a PSLV-XL launch vehicle from the Sirharikota (SRI). Payload-class satellites include a variety of spacecraft equipped with specific instruments for various scientific and technological missions. These include communications satellites like Starlink; space stations such as the ISS; scientific satellites like the Hubble; Earth observation satellites from companies like Planet Labs, Umbra, and HawkEye 360; GPS; miniature CubeSats for education and research; and military/defense satellites.

Loading next visibility...
Identifier
42767, 2017-036C
Orbit
SSO
Country
Flag of ININ / IND
Related business
Manufacturer
ISRO
Mission
Operational Defense Imaging
Bus & Motor
IRS-2, AOCS
Mass
712 kg wet, 639 kg dry
Launch date (UTC)
2017-06-23 (9 years ago)
Launch vehicle
PSLV-XL
Launch site
Sirharikota (SRI)
Object type
Payload
Rocket body
Debris
Shape & HBR
Hex Cyl + 2 Pan, 4.0 m
Radar Cross Section
9.780 m², Large (>1 m²)

Expand to show TLE details & history
Last TLE update: 11 hours ago

TLE from 11 hours ago
0 CARTOSAT 2E
1 42767U 17036C   26236.60870726  .00005819  00000-0  27899-3 0  9999
2 42767  97.4226 295.2596 0004726  80.9431 279.2338 15.19274411508530
Epoch: 2026-08-24T14:36Z
TLE epoch observation values (Epoch: 2026-08-24T14:36:32.307Z)
Latitude
-0.00004°
Longitude
103.23703°
Altitude
510.6 km
Speed
7.609 km/s
True Right ascension
19h 41m 02s
True Declination
0° 00' 00"
Sunlit
Object was in full shadow at epoch
Visualization orbit readout
Latitude
Unknown
Longitude
Unknown
Altitude
Unknown
Speed
Unknown
Apparent Right ascension
Unknown
Apparent Declination
Unknown
Sunlit
N/A
Visualization observer readout
Local Sidereal Time
17:08:51
Azimuth
Unknown
Elevation
Unknown
Doppler factor
Unknown
Orbital elements
Apogee altitude
508.253 km
Perigee altitude
501.747 km
Semi-major axis
6,883.137 km
Eccentricity
0.00047
Inclination
97.4226°
RAAN
295.2596°
Arg. of periapsis
80.9431°
True anomaly
279.18034°
Mean anomaly
279.2338°
Eccentric anomaly
279.20707°
Mean motion
3.8007 °/min
Orbital period
94.72 mins
BSTAR
0.00027899
Loading maneuver chart data...
Computing Atmospheric mass density...

Documentation

Showing up to 5 results
|